Regional Weather Roundup
Issued by NWS

Home | Current Version | Previous Version | Text Only | Print | Product List | Glossary Off
Versions: 1 2 3 4 5 6 7 8 9 10 11 12 13 14 15 16 17 18 19 20 21 22 23 24 25 26 27 28 29 30 31 32 33 34 35 36 37 38 39 40 41 42 43 44 45 46 47 48 49 50

000
ASUS45 KCYS 292310
RWRWY

WYOMING REGIONAL WEATHER ROUNDUP
NATIONAL WEATHER SERVICE CHEYENNE WY
500 PM MDT MON MAY 29 2017

NOTE:  "FAIR" INDICATES FEW OR NO CLOUDS BELOW 12,000 FEET
WITH NO SIGNIFICANT WEATHER AND/OR OBSTRUCTIONS TO VISIBILITY.

WYZ001-300000-
YELLOWSTONE NATIONAL PARK

CITY           SKY/WX    TMP DP  RH WIND       PRES   REMARKS
LK YELLOWSTONE   N/A     60  25  26 VRB3      30.32F
W YELLOWSTONE  NOT AVBL

$$
WYZ002>013-054>058-071-098>099-300000-
NORTHERN WYOMING

CITY           SKY/WX    TMP DP  RH WIND       PRES   REMARKS
JACKSON        MOSUNNY   66  30  26 NE8       30.22F
CODY           FAIR      68  34  28 NE9G17    30.21F
GREYBULL       FAIR      74  26  16 N12G22    30.13F
WORLAND        FAIR      75  30  19 N10       30.14F
SHERIDAN       FAIR      69  39  33 N12G22    30.17F
BUFFALO        FAIR      65  29  25 N20G28    30.21S
GILLETTE       FAIR      67  27  22 N20G26    30.17F
HULETT         FAIR      63  27  25 NW9       30.17F
NEWCASTLE      FAIR      64  21  19 NW20G28   30.16F

$$
WYZ014>020-022>026-101>103-300000-
CENTRAL WYOMING

CITY           SKY/WX    TMP DP  RH WIND       PRES   REMARKS
BIG PINEY      FAIR      67  32  27 W7        30.25F
PINEDALE       MOCLDY    64  30  27 N3        30.25F
DUBOIS         CLOUDY    61  32  33 SE14G23   30.24F
LANDER         FAIR      66  40  38 E7        30.19F
RIVERTON       FAIR      69  41  36 N13G20    30.20F
CASPER         FAIR      68  34  28 N9        30.19F
DOUGLAS        PTSUNNY   68  38  33 N12       30.19F

$$
WYZ021-027>030-104>119-300000-
SOUTHERN WYOMING

CITY           SKY/WX    TMP DP  RH WIND       PRES   REMARKS
EVANSTON       FAIR      70  30  22 N8        30.23F
KEMMERER         N/A     64  32  29 NW7       30.26S
FORT BRIDGER   FAIR      70  27  19 N6        30.26F
ROCK SPRINGS   FAIR      65  29  25 E3        30.22F
DIXON            N/A     67  33  28 S3        30.24F
RAWLINS        PTSUNNY   66  31  27 MISG      30.25F
SARATOGA       FAIR      61  32  33 NE13      30.28R
LARAMIE        LGT RAIN  60  34  37 NW3       30.25F
CHEYENNE       FAIR      59  41  51 S5        30.23F
TORRINGTON     FAIR      71  27  19 N18G28    30.13F
PINE BLUFFS    CLOUDY    63  41  45 SW15G23   30.22R

$$



USA.gov is the U.S. government's official web portal to all federal, state and local government web resources and services.